Weather Roundup
Issued by NWS Springfield, MO

Home | Current Version | Previous Version | Text Only | Print | Product List | Glossary On
Versions: 1 2 3 4 5 6 7 8 9 10 11 12 13 14 15 16 17 18 19 20 21 22 23 24 25 26 27 28 29 30 31 32 33 34 35 36 37 38 39 40 41 42 43 44 45 46 47 48 49 50
000
NZUS99 KSGF 020407
HRRSGF

HOURLY WEATHER
NATIONAL WEATHER SERVICE SPRINGFIELD MO
1100 PM CDT WED APR 01 2015

......SGF CWA......

CITY           SKY/WX    TMP DP  RH WIND       PRES   REMARKS
SPRINGFIELD    FAIR      62  58  86 S18       29.81F
JOPLIN         CLEAR     66  56  70 S14       29.78S
WEST PLAINS    CLOUDY    61  55  81 SW10      29.90F
ROLLA          PTCLDY    61  56  83 S20       29.81F
OSAGE BEACH    CLEAR     61  55  82 S14G20    29.79F
BRANSON        PTCLDY    59  57  94 CALM      29.87S

......SURROUNDING SGF CWA......

CITY           SKY/WX    TMP DP  RH WIND       PRES   REMARKS
CHANUTE        CLEAR     68  58  70 S18G25    29.72F
PARSONS        CLEAR     68  59  73 S13G21    29.74F
COFFEYVILLE    CLEAR     67  58  72 S13       29.74F
EMPORIA        PTCLDY    67  56  67 S23G31    29.64F
GROVE OK       CLEAR     68  59  73 S7        29.81R
ROGERS AR      CLEAR     64  55  72 S10       29.85R
SILOAM SPRINGS CLEAR     64  55  72 S14       29.84S
HARRISON AR    CLEAR     60  57  89 S9          N/A
NEAR YELLVILLE MOCLDY    61  55  82 SE5       29.88F

......KANSAS AND MISSOURI......

CITY           SKY/WX    TMP DP  RH WIND       PRES   REMARKS
KANSAS CTY INT MOCLDY    61  58  90 S16       29.66F
DOWNTOWN KC    CLOUDY    64  59  83 S8G18     29.68F
COLUMBIA       PTCLDY    58  55  90 SE10      29.77F
SEDALIA        CLEAR     58  55  90 SE13      29.74F
ST JOSEPH      CLEAR     62  56  80 S14       29.65S
ST LOUIS       CLOUDY    68  41  37 SE14G20   29.84F
SPIRIT OF STL  CLOUDY    67  46  47 S7G16     29.82F
KIRKSVILLE     PTCLDY    58  54  86 S12       29.74F
WICHITA        CLOUDY    72  59  63 S20G29    29.61F
TOPEKA         CLEAR     63  58  83 SE12      29.65S
OLATHE         CLOUDY    62  60  93 S20       29.68F

......TENNESSEE......

CITY           SKY/WX    TMP DP  RH WIND       PRES   REMARKS
MEMPHIS        CLOUDY    72  60  66 S13       29.96S
NASHVILLE      CLOUDY    59  39  47 S5        30.03F

......ARKANSAS.......

CITY           SKY/WX    TMP DP  RH WIND       PRES   REMARKS
FAYETTEVILLE   CLEAR     63  57  81 S12       29.84S
FT SMITH       CLEAR     63  57  81 NE7       29.84S
LITTLE ROCK    TSTM      64  60  87 SE6       29.93F

......OKLAHOMA.......

CITY           SKY/WX    TMP DP  RH WIND       PRES   REMARKS
TULSA          PTCLDY    70  64  81 S13       29.77S
PONCA CITY     CLOUDY    72  60  66 S6        29.72R
MCALESTER      MOCLDY    70  62  76 S10G18    29.83R
OKLAHOMA CITY  PTCLDY    69  60  73 S15       29.74R

......IOWA............

CITY           SKY/WX    TMP DP  RH WIND       PRES   REMARKS
DES MOINES     CLOUDY    64  52  64 S16       29.64F
QUAD CITIES    MOCLDY    65  37  35 S18G26    29.73F

......ILLINOIS........

CITY           SKY/WX    TMP DP  RH WIND       PRES   REMARKS
QUINCY         CLOUDY    63  49  60 S13       29.78F
CHICAGO        PTCLDY    60  37  42 S18G25    29.82F



USA.gov is the U.S. government's official web portal to all federal, state and local government web resources and services.